Tracking 20232 objects as of 21-Jan-2020
HD Live streaming from Space Station
objects crossing your sky now

COSMOS 1275 DEB

Track COSMOS 1275 DEB now!
10-day predictions


NORAD ID: 18902
Int'l Code: 1981-053MG
Perigee: 804.1 km
Apogee: 816.7 km
Inclination: 83.0 °
Period: 100.9 minutes
Semi major axis: 7181 km
RCS: 0.0086 m2 (small)
Launch date: June 4, 1981
Source: Commonwealth of Independent States (former USSR) (CIS)
Launch site: PLESETSK MISSILE AND SPACE COMPLEX (PKMTR)

Note: This is SATELLITE DEBRIS
aabbcc
Your satellite tracking list
Your tracking list is empty




NASA's NSSDC Master Catalog

Two Line Element Set (TLE):
1 18902U 81053MB  20021.08022332 -.00000641 +00000-0 -27328-3 0  9990
2 18902 082.9518 053.1266 0008762 287.9865 072.0365 14.26569523329758
Source of the keplerian elements: AFSPC